Weather History for KGCC - March, 2013

Change the Weather History Date:

Thursday, March 28, 2013

  Actual Average Record
Temperature  
Mean Temperature 42 °F 38 °F  
Max Temperature 62 °F 51 °F - ()
Min Temperature 22 °F 25 °F - ()
Degree Days  
Heating Degree Days 23 27  
Month to date heating degree days 897 857  
Since 1 July heating degree days 6020 6265  
Cooling Degree Days 0 0  
Month to date cooling degree days 0 0  
Year to date cooling degree days 0 0  
Moisture  
Dew Point 22 °F    
Average Humidity 56    
Maximum Humidity 92    
Minimum Humidity 19    
Precipitation  
Precipitation 0.00 in 0.04 in - ()
Month to date precipitation 0.28 0.85  
Year to date precipitation 1.41 1.63  
Sea Level Pressure  
Sea Level Pressure 30.05 in    
Wind  
Wind Speed 4 mph (SW)    
Max Wind Speed 16 mph    
Max Gust Speed 30 mph    
Visibility 10 miles    
Events      
T = Trace of Precipitation, MM = Missing Value Source: NWS Daily Summary

Daily Weather History Graph

Daily Weather History Graph

Search for Another Location

Airport or City:

Trip Planner

Search our weather history database for the weather conditions in past years. The results will help you decide how hot, cold, wet, or windy it might be!

Date:

Astronomy

Mar. 28, 2013 Rise Set
Actual Time 6:50 AM MDT 7:24 PM MDT
Civil Twilight 6:20 AM MDT 7:54 PM MDT
Nautical Twilight 5:46 AM MDT 8:28 PM MDT
Astronomical Twilight 5:10 AM MDT 9:04 PM MDT
Moon 9:25 PM MDT (3/28) 7:15 AM MDT (3/28)
Length of Visible Light 13h 33m
Length of Day
12h 34m
Full, 98% of the Moon is Illuminated
Mar 28
Full
Apr 2
Last Quarter
Apr 10
New
Apr 18
First Quarter
Apr 25
Full

Hourly Weather History & Observations

Time (MDT) Temp. Windchill Dew Point Humidity Pressure Visibility Wind Dir Wind Speed Gust Speed Precip Events Conditions
12:53 AM 27.0 °F 23.0 °F 21.0 °F 78% 30.02 in 10.0 mi SW 3.5 mph - N/A   Clear
1:53 AM 34.0 °F 31.0 °F 19.9 °F 56% 30.00 in 10.0 mi ESE 3.5 mph - N/A   Clear
2:53 AM 34.0 °F 29.8 °F 19.9 °F 56% 29.99 in 10.0 mi South 4.6 mph - N/A   Clear
3:53 AM 28.0 °F 21.7 °F 19.9 °F 72% 30.01 in 10.0 mi NW 5.8 mph - N/A   Clear
4:53 AM 24.1 °F - 19.0 °F 81% 30.03 in 10.0 mi Calm Calm - N/A   Clear
5:53 AM 24.1 °F - 19.0 °F 81% 30.04 in 10.0 mi Calm Calm - N/A   Clear
6:53 AM 21.9 °F 17.2 °F 19.0 °F 89% 30.08 in 10.0 mi South 3.5 mph - N/A   Clear
7:53 AM 33.1 °F - 27.0 °F 78% 30.07 in 10.0 mi Calm Calm - N/A   Clear
8:53 AM 46.0 °F 41.0 °F 26.1 °F 46% 30.06 in 10.0 mi West 10.4 mph - N/A   Clear
9:53 AM 52.0 °F - 25.0 °F 35% 30.05 in 10.0 mi West 10.4 mph - N/A   Clear
10:53 AM 55.0 °F - 21.0 °F 27% 30.07 in 10.0 mi West 4.6 mph - N/A   Clear
11:53 AM 55.0 °F - 21.0 °F 27% 30.09 in 10.0 mi SW 4.6 mph - N/A   Clear
12:53 PM 57.9 °F - 19.9 °F 23% 30.08 in 10.0 mi Variable 5.8 mph - N/A   Partly Cloudy
1:53 PM 57.9 °F - 18.0 °F 21% 30.04 in 10.0 mi Variable 3.5 mph - N/A   Partly Cloudy
2:53 PM 59.0 °F - 19.9 °F 22% 30.02 in 10.0 mi Variable 3.5 mph - N/A   Partly Cloudy
3:53 PM 60.1 °F - 19.9 °F 21% 30.03 in 10.0 mi Calm Calm - N/A   Scattered Clouds
4:53 PM 62.1 °F - 19.9 °F 20% 30.03 in 10.0 mi NNW 8.1 mph - N/A   Mostly Cloudy
5:53 PM 60.1 °F - 19.0 °F 20% 30.04 in 10.0 mi WNW 3.5 mph - N/A   Clear
6:53 PM 57.0 °F - 21.0 °F 25% 30.07 in 10.0 mi Calm Calm - N/A   Clear
7:53 PM 37.9 °F - 24.1 °F 57% 30.10 in 10.0 mi Calm Calm - N/A   Unknown
8:53 PM 36.0 °F - 25.0 °F 64% 30.08 in 10.0 mi Calm Calm - N/A   Clear
9:53 PM 33.1 °F 26.1 °F 24.1 °F 70% 30.07 in 10.0 mi South 8.1 mph - N/A   Clear
10:53 PM 36.0 °F 33.3 °F 25.0 °F 64% 30.05 in 10.0 mi South 3.5 mph - N/A   Clear
11:53 PM 37.0 °F 34.5 °F 25.0 °F 62% 30.06 in 10.0 mi SSE 3.5 mph - N/A   Clear